Flag for Chile Weather past 2 weeks in Iquique, Chile

Now
68 °F

Overcast.


Feels Like: 68 °F
Forecast: 62 / 68 °F
Wind: 6 mph from West

Location: Iquique / Diego Arac

Current Time: Oct 25, 2014 at 1:02:38 PM

Latest Report: Oct 25, 2014 at 12:00 PM


Visibility: N/A

Pressure: 30.01 "Hg

Humidity: 60%

Dew point: 54 °F

Location of IquiqueLocation

Historic Weather in Iquique — Graph

°F

Iquique temperature yesterday

Maximum temperature yesterday: 70 °F (at 4:00 PM)
Minimum temperature yesterday: 63 °F (at 12:00 AM)
Average temperature yesterday: 65 °F

Past Weeks' High & Low Weather Summary

 TemperatureHumidityPressure
High75 °F (Oct 19, 10:00 AM)83% (Oct 11, 10:00 PM)30.07 "Hg (Oct 11, 10:00 PM)
Low59 °F (Oct 11, 6:00 AM)41% (Oct 19, 10:00 AM)29.89 "Hg (Oct 13, 4:00 PM)
Average65 °F69%29.98 "Hg
* Reported Oct 10 12:00 Noon — Oct 25 12:00 Noon, Iquique, Weather by CustomWeather, © 2014

Note: Actual official high and low records may vary slightly from our data, if they occured in-between our weather recording intervals... More about our weather records

Advertising

Iquique weather history for previous 24 hours

 ConditionsComfort  
Time TempWeatherWind HumidityBarometerVisibility
12:00 PM
Oct 25
68 °FOvercast.6 mph60%30.01 "HgN/A
11:00 AM66 °FOvercast.8 mph64%30.01 "HgN/A
10:00 AM66 °FOvercast.2 mph64%30.01 "HgN/A
9:00 AM64 °FOvercast.3 mph68%30.01 "HgN/A
8:00 AM63 °FOvercast.3 mph77%29.98 "HgN/A
7:00 AM64 °FOvercast.5 mph68%29.95 "HgN/A
6:00 AM64 °FOvercast.No wind68%29.95 "HgN/A
5:00 AM64 °FOvercast.5 mph68%29.95 "HgN/A
4:00 AM64 °FOvercast.5 mph68%29.95 "HgN/A
3:00 AM64 °FOvercast.5 mph68%29.95 "HgN/A
1:00 AM64 °FOvercast.No wind68%29.95 "HgN/A
12:00 AM64 °FOvercast.7 mph73%29.95 "HgN/A
11:00 PM
Oct 24
64 °FOvercast.10 mph73%29.95 "HgN/A
10:00 PM64 °FPassing clouds.12 mph78%29.95 "HgN/A
9:00 PM64 °FPassing clouds.10 mph78%29.92 "HgN/A
8:00 PM64 °FPassing clouds.14 mph73%29.89 "Hg4 mi
7:00 PM66 °FSunny.17 mph68%29.89 "Hg5 mi
6:00 PM68 °FSunny.16 mph64%29.89 "Hg10 mi
5:00 PM68 °FSunny.17 mph60%29.89 "Hg10 mi
4:00 PM70 °FSunny.16 mph57%29.89 "Hg10 mi
3:00 PM68 °FSunny.16 mph60%29.92 "Hg10 mi
2:00 PM68 °FSunny.16 mph60%29.95 "Hg10 mi
1:00 PM68 °FSunny.16 mph60%29.98 "Hg10 mi
Weather by CustomWeather, © 2014

See weather overviewHow to use our weather pages